Weather History for Hattiesburg, MS

Change the Weather History Date:

Tuesday, December 28, 2004

  Actual Average Record
Temperature  
Mean Temperature 45 °F 49 °F  
Max Temperature 62 °F 60 °F 82 °F (1987)
Min Temperature 28 °F 38 °F 19 °F (2010)
Degree Days  
Heating Degree Days 20 16  
Month to date heating degree days 409  
Since 1 July heating degree days 737  
Cooling Degree Days 0 0  
Month to date cooling degree days 12  
Year to date cooling degree days 2402  
Moisture  
Dew Point 34 °F    
Average Humidity 77    
Maximum Humidity 93    
Minimum Humidity 38    
Precipitation  
Precipitation 0.00 in 0.14 in 4.48 in (1983)
Month to date precipitation 4.50  
Year to date precipitation 58.76  
Sea Level Pressure  
Sea Level Pressure 30.48 in    
Wind  
Wind Speed 1 mph (South)    
Max Wind Speed 10 mph    
Max Gust Speed -    
Visibility 10 miles    
Events      
T = Trace of Precipitation, MM = Missing Value Source: NWS Daily Summary

Daily Weather History Graph

Daily Weather History Graph

Search for Another Location

Airport:

Trip Planner

Search our weather history database for the weather conditions in past years. The results will help you decide how hot, cold, wet, or windy it might be!

Date:

Astronomy

Dec. 28, 2004 Rise Set
Actual Time 6:54 AM CST 5:02 PM CST
Civil Twilight 6:28 AM CST 5:29 PM CST
Nautical Twilight 5:57 AM CST 5:59 PM CST
Astronomical Twilight 5:28 AM CST 6:29 PM CST
Moon 6:52 PM CST (12/28) 8:41 AM CST (12/28)
Length of Visible Light 11h 01m
Length of Day
10h 08m
Waning Gibbous, 96% of the Moon is Illuminated
Dec 28
Waning Gibbous
Jan 3
Last Quarter
Jan 10
New
Jan 17
First Quarter
Jan 25
Full

Hourly Weather History & Observations

Time (CST) Temp. Dew Point Humidity Pressure Visibility Wind Dir Wind Speed Gust Speed Precip Events Conditions
12:53 AM 30.9 °F 28.0 °F 89% 30.51 in 10.0 mi Calm Calm - N/A   Clear
1:53 AM 30.0 °F 28.0 °F 92% 30.51 in 9.0 mi Calm Calm - N/A   Clear
2:53 AM 28.9 °F 27.0 °F 92% 30.50 in 10.0 mi Calm Calm - N/A   Clear
3:53 AM 28.9 °F 26.1 °F 89% 30.50 in 8.0 mi Calm Calm - N/A   Clear
4:53 AM 28.0 °F 26.1 °F 92% 30.51 in 9.0 mi Calm Calm - N/A   Clear
5:53 AM 28.0 °F 25.0 °F 88% 30.53 in 10.0 mi Calm Calm - N/A   Clear
6:53 AM 28.0 °F 26.1 °F 92% 30.55 in 8.0 mi Calm Calm - N/A   Clear
7:53 AM 30.0 °F 28.0 °F 92% 30.55 in 9.0 mi Calm Calm - N/A   Clear
8:53 AM 37.0 °F 33.1 °F 86% 30.56 in 8.0 mi Calm Calm - N/A   Clear
9:53 AM 42.1 °F 35.1 °F 76% 30.58 in 10.0 mi Calm Calm - N/A   Clear
10:53 AM 48.9 °F 36.0 °F 61% 30.55 in 10.0 mi Calm Calm - N/A   Clear
11:53 AM 55.9 °F 36.0 °F 47% 30.51 in 10.0 mi Calm Calm - N/A   Clear
12:53 PM 60.1 °F 34.0 °F 38% 30.47 in 10.0 mi SW 6.9 mph - N/A   Clear
1:53 PM 62.1 °F 37.9 °F 41% 30.44 in 10.0 mi SSW 6.9 mph - N/A   Clear
2:53 PM 62.1 °F 39.0 °F 43% 30.42 in 10.0 mi South 10.4 mph - N/A   Clear
3:53 PM 62.1 °F 41.0 °F 46% 30.41 in 10.0 mi SSE 8.1 mph - N/A   Clear
4:53 PM 57.9 °F 42.1 °F 56% 30.41 in 10.0 mi South 3.5 mph - N/A   Clear
5:53 PM 48.9 °F 42.1 °F 77% 30.42 in 10.0 mi Calm Calm - N/A   Clear
6:53 PM 45.0 °F 41.0 °F 86% 30.43 in 10.0 mi Calm Calm - N/A   Clear
7:53 PM 42.1 °F 37.9 °F 85% 30.43 in 10.0 mi Calm Calm - N/A   Clear
8:53 PM 41.0 °F 37.9 °F 89% 30.43 in 10.0 mi Calm Calm - N/A   Clear
9:53 PM 39.0 °F 37.0 °F 93% 30.44 in 10.0 mi Calm Calm - N/A   Clear
10:53 PM 37.9 °F 36.0 °F 93% 30.45 in 10.0 mi Calm Calm - N/A   Clear
11:53 PM 37.0 °F 35.1 °F 93% 30.44 in 10.0 mi Calm Calm - N/A   Clear